When you browse on this site, cookies collect data to enhance your experience and personalize the content and advertising you see.
Visit our Privacy Policy to learn more. By continuing to use the site, you agree to this use of cookies and data.
  • In United Kingdom
  • List of Countries
  • For 7 days
  • Water Temperature
  • Satellite Maps
  • Weather Map
  • Weather Widgets
  • user-avatar
    Login

    Hourly Weather Heredia

    Today, 25 June, Tuesday

    Time Temperature Precipitation Wind Pressure Humidity
    00:00 +20°C° 0 mm 1 mps 662 mmHg 93%
    01:00 +20°C° 0 mm 1 mps 661 mmHg 94%
    02:00 +20°C° 0 mm 1 mps 661 mmHg 94%
    03:00 +20°C° 0 mm 1 mps 661 mmHg 95%
    04:00 +20°C° 0 mm 1 mps 661 mmHg 94%
    05:00 +20°C° 0 mm 1 mps 661 mmHg 94%
    06:00 +20°C° 0 mm 1 mps 662 mmHg 94%
    07:00 +22°C° 0 mm 1 mps 662 mmHg 89%
    08:00 +24°C° 0 mm 1 mps 663 mmHg 83%
    09:00 +25°C° 0 mm 1 mps 664 mmHg 78%
    10:00 +26°C° 1.8 mm 1 mps 664 mmHg 79%
    11:00 +26°C° 1.8 mm 1 mps 663 mmHg 81%
    12:00 +26°C° 1.8 mm 1 mps 663 mmHg 82%
    13:00 +25°C° 2.5 mm 1 mps 663 mmHg 87%
    14:00 +24°C° 2.5 mm 1 mps 662 mmHg 91%
    15:00 +21°C° 2.5 mm 0 mps 661 mmHg 96%
    16:00 +20°C° 0.6 mm 0 mps 661 mmHg 96%
    17:00 +22°C° 0.6 mm 1 mps 661 mmHg 96%
    18:00 +22°C° 0.6 mm 1 mps 661 mmHg 97%
    19:00 +22°C° 0 mm 1 mps 662 mmHg 97%
    20:00 +21°C° 0 mm 1 mps 662 mmHg 97%
    21:00 +21°C° 0 mm 1 mps 662 mmHg 97%
    22:00 +21°C° 0 mm 1 mps 662 mmHg 97%
    23:00 +21°C° 0 mm 1 mps 662 mmHg 96%

    Tomorrow, 26 June, Wednesday

    Time Temperature Precipitation Wind Pressure Humidity
    00:00 +20°C° 0 mm 1 mps 662 mmHg 96%
    01:00 +20°C° 0 mm 1 mps 661 mmHg 96%
    02:00 +20°C° 0 mm 1 mps 661 mmHg 96%
    03:00 +20°C° 0 mm 1 mps 660 mmHg 96%
    04:00 +20°C° 0 mm 1 mps 661 mmHg 95%
    05:00 +20°C° 0 mm 1 mps 661 mmHg 95%
    06:00 +19°C° 0 mm 2 mps 661 mmHg 94%
    07:00 +22°C° 0 mm 1 mps 662 mmHg 87%
    08:00 +24°C° 0 mm 1 mps 662 mmHg 80%
    09:00 +26°C° 0 mm 1 mps 663 mmHg 73%
    10:00 +26°C° 1 mm 1 mps 663 mmHg 75%
    11:00 +26°C° 1 mm 1 mps 663 mmHg 78%
    12:00 +26°C° 1 mm 2 mps 663 mmHg 80%
    13:00 +25°C° 1.9 mm 1 mps 662 mmHg 82%
    14:00 +24°C° 1.9 mm 1 mps 661 mmHg 85%
    15:00 +24°C° 1.9 mm 1 mps 661 mmHg 87%
    16:00 +23°C° 0.5 mm 1 mps 661 mmHg 90%
    17:00 +22°C° 0.5 mm 1 mps 661 mmHg 92%
    18:00 +21°C° 0.5 mm 1 mps 661 mmHg 94%
    19:00 +21°C° 0 mm 1 mps 661 mmHg 94%
    20:00 +20°C° 0 mm 1 mps 661 mmHg 94%
    21:00 +19°C° 0 mm 2 mps 662 mmHg 94%
    22:00 +19°C° 0 mm 2 mps 661 mmHg 94%
    23:00 +18°C° 0 mm 2 mps 661 mmHg 93%

    Day after tomorrow, 27 June, Thursday

    Time Temperature Precipitation Wind Pressure Humidity
    00:00 +18°C° 0 mm 2 mps 661 mmHg 93%
    01:00 +18°C° 0 mm 2 mps 660 mmHg 93%
    02:00 +18°C° 0 mm 2 mps 660 mmHg 94%
    03:00 +18°C° 0 mm 2 mps 660 mmHg 94%
    04:00 +18°C° 0 mm 2 mps 660 mmHg 93%
    05:00 +18°C° 0 mm 2 mps 660 mmHg 93%
    06:00 +19°C° 0 mm 2 mps 660 mmHg 92%
    07:00 +20°C° 0 mm 2 mps 661 mmHg 84%
    08:00 +23°C° 0 mm 2 mps 662 mmHg 77%
    09:00 +25°C° 0 mm 2 mps 663 mmHg 69%
    10:00 +25°C° 0.4 mm 2 mps 663 mmHg 70%
    11:00 +26°C° 0.4 mm 2 mps 662 mmHg 72%
    12:00 +26°C° 0.4 mm 2 mps 662 mmHg 74%
    13:00 +25°C° 1.9 mm 1 mps 662 mmHg 79%
    14:00 +24°C° 1.9 mm 1 mps 661 mmHg 85%
    15:00 +23°C° 1.9 mm 1 mps 660 mmHg 90%
    16:00 +22°C° 1.2 mm 1 mps 660 mmHg 91%
    17:00 +21°C° 1.2 mm 1 mps 660 mmHg 91%
    18:00 +20°C° 1.2 mm 1 mps 660 mmHg 92%
    19:00 +20°C° 0 mm 1 mps 660 mmHg 92%
    20:00 +18°C° 0 mm 2 mps 661 mmHg 92%
    21:00 +18°C° 0 mm 2 mps 661 mmHg 92%
    22:00 +18°C° 0 mm 2 mps 661 mmHg 92%
    23:00 +18°C° 0 mm 2 mps 661 mmHg 93%

    28 June, Friday

    Time Temperature Precipitation Wind Pressure Humidity
    00:00 +18°C° 0 mm 2 mps 660 mmHg 93%
    01:00 +18°C° 0 mm 2 mps 660 mmHg 93%
    02:00 +18°C° 0 mm 2 mps 660 mmHg 93%
    03:00 +18°C° 0 mm 2 mps 660 mmHg 94%
    04:00 +18°C° 0 mm 2 mps 660 mmHg 93%
    05:00 +18°C° 0 mm 2 mps 660 mmHg 93%
    06:00 +18°C° 0 mm 2 mps 661 mmHg 92%
    07:00 +20°C° 0 mm 2 mps 661 mmHg 85%
    08:00 +23°C° 0 mm 2 mps 662 mmHg 78%
    09:00 +24°C° 0 mm 2 mps 663 mmHg 70%
    10:00 +25°C° 0 mm 2 mps 663 mmHg 68%
    11:00 +26°C° 0 mm 2 mps 663 mmHg 65%
    12:00 +27°C° 0 mm 3 mps 663 mmHg 62%
    13:00 +26°C° 0.4 mm 2 mps 662 mmHg 67%
    14:00 +25°C° 0.4 mm 2 mps 661 mmHg 72%
    15:00 +25°C° 0.4 mm 1 mps 661 mmHg 77%
    16:00 +24°C° 0.6 mm 1 mps 661 mmHg 82%
    17:00 +22°C° 0.6 mm 1 mps 661 mmHg 88%
    18:00 +21°C° 0.6 mm 1 mps 661 mmHg 94%
    19:00 +21°C° 0.1 mm 1 mps 661 mmHg 94%
    20:00 +20°C° 0.1 mm 1 mps 661 mmHg 94%
    21:00 +20°C° 0.1 mm 1 mps 662 mmHg 94%
    22:00 +20°C° 0 mm 1 mps 661 mmHg 94%
    23:00 +20°C° 0 mm 1 mps 661 mmHg 94%

    29 June, Saturday

    Time Temperature Precipitation Wind Pressure Humidity
    00:00 +20°C° 0 mm 1 mps 661 mmHg 94%
    01:00 +19°C° 0 mm 1 mps 660 mmHg 94%
    02:00 +19°C° 0 mm 1 mps 660 mmHg 94%
    03:00 +19°C° 0 mm 1 mps 660 mmHg 94%
    04:00 +19°C° 0 mm 1 mps 660 mmHg 94%
    05:00 +19°C° 0 mm 2 mps 660 mmHg 93%
    06:00 +19°C° 0 mm 2 mps 661 mmHg 93%
    07:00 +20°C° 0 mm 2 mps 661 mmHg 87%
    08:00 +23°C° 0 mm 1 mps 662 mmHg 80%
    09:00 +25°C° 0 mm 1 mps 663 mmHg 73%
    10:00 +25°C° 0.7 mm 1 mps 663 mmHg 75%
    11:00 +25°C° 0.7 mm 1 mps 663 mmHg 77%
    12:00 +26°C° 0.7 mm 1 mps 662 mmHg 79%
    13:00 +25°C° 2.3 mm 1 mps 662 mmHg 85%
    14:00 +24°C° 2.3 mm 1 mps 661 mmHg 90%
    15:00 +23°C° 2.3 mm 1 mps 660 mmHg 95%
    16:00 +22°C° 1.3 mm 1 mps 661 mmHg 95%
    17:00 +22°C° 1.3 mm 1 mps 661 mmHg 96%
    18:00 +21°C° 1.3 mm 1 mps 661 mmHg 97%
    19:00 +21°C° 0.3 mm 1 mps 661 mmHg 95%
    20:00 +20°C° 0.3 mm 1 mps 661 mmHg 93%
    21:00 +20°C° 0.3 mm 1 mps 662 mmHg 92%
    22:00 +20°C° 0 mm 1 mps 661 mmHg 91%
    23:00 +19°C° 0 mm 2 mps 661 mmHg 91%

    30 June, Sunday

    Time Temperature Precipitation Wind Pressure Humidity
    00:00 +18°C° 0 mm 2 mps 661 mmHg 90%
    01:00 +18°C° 0 mm 2 mps 660 mmHg 91%
    02:00 +18°C° 0 mm 2 mps 660 mmHg 92%
    03:00 +18°C° 0 mm 2 mps 660 mmHg 93%
    04:00 +18°C° 0 mm 2 mps 660 mmHg 93%
    05:00 +18°C° 0 mm 2 mps 660 mmHg 93%
    06:00 +19°C° 0 mm 2 mps 660 mmHg 93%
    07:00 +21°C° 0 mm 2 mps 661 mmHg 86%
    08:00 +24°C° 0 mm 1 mps 662 mmHg 79%
    09:00 +26°C° 0 mm 1 mps 663 mmHg 72%
    10:00 +27°C° 0.1 mm 2 mps 663 mmHg 70%
    11:00 +27°C° 0.1 mm 2 mps 663 mmHg 68%
    12:00 +28°C° 0.1 mm 2 mps 663 mmHg 66%
    13:00 +27°C° 1 mm 2 mps 662 mmHg 73%
    14:00 +26°C° 1 mm 1 mps 661 mmHg 80%
    15:00 +25°C° 1 mm 1 mps 660 mmHg 87%
    16:00 +24°C° 0.7 mm 1 mps 660 mmHg 90%
    17:00 +23°C° 0.7 mm 1 mps 660 mmHg 93%
    18:00 +22°C° 0.7 mm 1 mps 661 mmHg 97%
    19:00 +21°C° 0 mm 1 mps 661 mmHg 96%
    20:00 +21°C° 0 mm 1 mps 661 mmHg 96%
    21:00 +20°C° 0 mm 1 mps 662 mmHg 96%
    22:00 +20°C° 0 mm 1 mps 661 mmHg 96%
    23:00 +20°C° 0 mm 1 mps 661 mmHg 96%
    Show more